Location: LDNL
(36.4545°S, 141.6685°E)
Time: 11:54:44
(UTC+10:00)

Explorer 7 - Pass Details

Date: 14 August 2022
Orbit: 482 x 668 km, 50.3° (Epoch: 26 September)

Event Time Altitude Azimuth Distance (km) Brightness Sun altitude
Rises 02:04:37 0° 246° (WSW) 2,807 - -60.8°
Reaches altitude 10° 02:07:28 10° 263° (W) 1,860 - -60.4°
Maximum altitude 02:10:26 19° 308° (NW) 1,343 - -59.9°
Drops below altitude 10° 02:13:17 10° 353° (N) 1,766 - -59.5°
Sets 02:15:55 0° 12° (NNE) 2,612 - -59.1°
